IU1INZ-13 Weather Reports


time (UTC)temp
C
wind
direction
speed
KPH
gust
KPH
rain 1hr
cm
rain 24hr
cm
rain mn
cm
humidity
%
barometer
mb
20260505153031 15 170 0.0 4.8 0.00 1.17 0.89 75 1012.8
20260505151529 15 152 3.2 4.8 0.00 1.17 0.89 76 1012.9
20260505124539 13 59 1.6 6.4 0.00 1.17 0.89 82 1013.8
20260505123033 13 63 3.2 6.4 0.00 1.17 0.89 81 1013.9
20260505121534 13 0 0.0 1.6 0.00 1.17 0.89 83 1013.9
20260505120038 12 281 1.6 3.2 0.00 1.17 0.89 83 1014.2
20260505114531 13 0 0.0 1.6 0.00 1.17 0.89 84 1014.2
20260505113033 12 314 0.0 4.8 0.00 1.17 0.89 84 1014.2
20260505111531 12 270 1.6 3.2 0.00 1.17 0.89 83 1014.3
20260505101539 11 217 3.2 4.8 0.00 1.17 0.89 87 1014.5
20260505100035 11 0 1.6 4.8 0.00 1.17 0.89 89 1014.4
20260505094534 11 272 3.2 4.8 0.00 1.17 0.89 89 1014.4
20260505093031 11 219 1.6 6.4 0.00 1.17 0.89 89 1014.4
20260505091534 11 252 3.2 6.4 0.00 1.17 0.89 89 1014.5
20260505090029 11 287 1.6 6.4 0.00 1.17 0.89 89 1014.3
20260505084542 11 233 3.2 6.4 0.00 1.17 0.89 89 1014.3
20260505083033 11 235 3.2 6.4 0.00 1.17 0.89 89 1014.2
20260505081534 11 243 3.2 4.8 0.00 1.17 0.89 89 1014.0
20260505080030 11 223 3.2 6.4 0.00 1.17 0.89 89 1014.0
20260505074534 11 162 1.6 4.8 0.05 1.17 0.89 88 1013.9
20260505073040 11 204 1.6 4.8 0.05 1.17 0.89 88 1013.9
20260505071533 11 220 0.0 3.2 0.03 1.14 0.86 88 1013.8
20260505070040 11 225 0.0 6.4 0.03 1.14 0.86 87 1014.0
20260505064534 11 0 0.0 3.2 0.00 1.12 0.84 85 1013.8
20260505063030 11 333 1.6 6.4 0.00 1.12 0.84 86 1013.6
20260505061539 11 319 3.2 11.3 0.03 1.12 0.84 86 1013.7
20260505060034 10 337 8.0 14.5 0.10 1.12 0.84 87 1013.5
20260505054537 10 316 6.4 9.7 0.23 1.12 0.84 89 1013.6
20260505053033 10 13 4.8 9.7 0.33 1.09 0.81 90 1013.6
20260505051533 10 0 0.0 0.0 0.43 1.07 0.79 90 1013.7
20260505041548 10 240 0.0 3.2 0.28 0.61 0.33 89 1014.2
20260505040040 10 0 0.0 0.0 0.18 0.51 0.23 89 1014.3
20260505034533 10 0 0.0 4.8 0.08 0.38 0.10 88 1014.1
20260505033034 11 238 0.0 4.8 0.03 0.36 0.08 87 1014.0
20260505031541 11 242 0.0 3.2 0.00 0.33 0.05 87 1014.0
20260505030032 11 209 1.6 8.0 0.00 0.30 0.03 85 1014.3
20260505024538 11 240 1.6 6.4 0.00 0.30 0.03 84 1014.2
20260505023031 11 146 4.8 9.7 0.00 0.30 0.03 83 1014.2
20260505021535 11 139 1.6 6.4 0.00 0.30 0.03 80 1014.2
20260505020032 11 0 0.0 4.8 0.00 0.30 0.03 78 1014.2
20260505014541 11 318 3.2 8.0 0.00 0.30 0.03 79 1014.2
20260505013038 11 314 3.2 9.7 0.00 0.30 0.03 81 1014.2
20260505011530 11 304 3.2 8.0 0.03 0.30 0.03 82 1014.6
20260505010033 11 333 3.2 4.8 0.03 0.30 0.03 86 1015.2
20260505004538 11 0 0.0 3.2 0.03 0.30 0.03 85 1015.7
20260505003032 11 352 1.6 4.8 0.00 0.28 0.00 84 1015.9
20260505001533 11 210 0.0 4.8 0.00 0.28 0.00 83 1016.1
20260505000038 12 0 0.0 1.6 0.00 0.28 0.00 82 1016.1
20260504234536 12 0 0.0 1.6 0.00 0.28 0.00 81 1016.4
20260504233041 12 219 0.0 3.2 0.00 0.28 0.00 80 1016.4
20260504231534 12 162 1.6 6.4 0.00 0.28 0.00 79 1016.6
20260504230035 12 52 3.2 11.3 0.00 0.28 0.00 80 1016.8
20260504224537 12 214 1.6 8.0 0.00 0.28 0.00 79 1017.0
20260504223052 12 160 1.6 6.4 0.00 0.28 0.00 78 1016.8
20260504221536 12 205 4.8 4.8 0.00 0.28 0.00 78 1016.8
20260504220041 12 253 1.6 8.0 0.00 0.28 0.00 72 1017.1
20260504214532 13 296 4.8 9.7 0.00 0.28 0.28 69 1017.3
20260504213045 12 170 0.0 14.5 0.00 0.28 0.28 74 1017.7
20260504211535 13 307 6.4 17.7 0.00 0.28 0.28 66 1017.5
20260504210038 13 316 8.0 20.9 0.00 0.28 0.28 68 1017.5
20260504204542 12 321 8.0 16.1 0.00 0.28 0.28 70 1017.6
20260504203036 12 307 8.0 20.9 0.00 0.28 0.28 70 1017.7
20260504201531 12 356 11.3 19.3 0.00 0.28 0.28 72 1017.9
20260504200029 12 316 9.7 22.5 0.00 0.28 0.28 73 1017.8
20260504194533 12 340 9.7 19.3 0.00 0.28 0.28 74 1017.8
20260504193033 12 322 12.9 22.5 0.00 0.28 0.28 74 1017.6
20260504191533 12 326 9.7 22.5 0.00 0.28 0.28 77 1017.4
20260504190030 12 310 9.7 22.5 0.03 0.28 0.28 77 1017.4
20260504184535 12 283 14.5 24.1 0.08 0.28 0.28 77 1017.2
20260504183034 12 276 11.3 22.5 0.08 0.28 0.28 78 1017.4
20260504181541 12 294 8.0 16.1 0.15 0.25 0.25 81 1017.5
20260504180032 12 282 8.0 16.1 0.23 0.23 0.23 80 1017.7
20260504174533 13 317 6.4 16.1 0.18 0.18 0.18 79 1017.3
20260504173032 13 300 4.8 9.7 0.18 0.18 0.18 81 1017.2
20260504171533 14 319 6.4 11.3 0.08 0.08 0.08 73 1017.3